Weather History for YPPH - January, 2014

Change the Weather History Date:

Thursday, January 9, 2014

  Actual Average Record
Temperature  
Mean Temperature 73 °F -  
Max Temperature 86 °F 89 °F 98 °F (2003)
Min Temperature 60 °F 63 °F 57 °F (2002)
Cooling Degree Days 8    
Growing Degree Days 23 (Base 50)    
Moisture  
Dew Point 58 °F    
Average Humidity 59    
Maximum Humidity 88    
Minimum Humidity 26    
Precipitation  
Precipitation 0.00 in 0.01 in - ()
Sea Level Pressure  
Sea Level Pressure 29.99 in    
Wind  
Wind Speed 11 mph ()    
Max Wind Speed 21 mph    
Max Gust Speed -    
Visibility 17.2 miles    
Events      
Averages and records for this station are not official NWS values.
T = Trace of Precipitation, MM = Missing Value Source: Averaged Metar Reports

Daily Weather History Graph

Daily Weather History Graph

Search for Another Location

Airport or City:

Trip Planner

Search our weather history database for the weather conditions in past years. The results will help you decide how hot, cold, wet, or windy it might be!

Date:

Astronomy

Jan. 09, 2014 Rise Set
Actual Time 5:19 AM AWST 7:26 PM AWST
Civil Twilight 4:51 AM AWST 7:53 PM AWST
Nautical Twilight 4:18 AM AWST 8:27 PM AWST
Astronomical Twilight 3:41 AM AWST 9:03 PM AWST
Moon 1:30 PM AWST (1/9) 12:06 AM AWST (1/9)
Length of Visible Light 15h 01m
Length of Day
14h 06m
First Quarter, 60% of the Moon is Illuminated
Jan 9
First Quarter
Jan 16
Full
Jan 24
Last Quarter
Jan 31
New
Feb 7
First Quarter

Hourly Weather History & Observations

Time (AWST) Temp. Heat Index Dew Point Humidity Pressure Visibility Wind Dir Wind Speed Gust Speed Precip Events Conditions
12:00 AM 66 °F - 59 °F 72% 30.02 in 16 mi South 10.4 mph - -   Partly Cloudy
12:00 AM 66.2 °F - 59.0 °F 78% 30.01 in - South 10.4 mph - N/A   Clear
12:30 AM 66.2 °F - 59.0 °F 78% 30.01 in - SSW 11.5 mph - N/A   Clear
1:00 AM 66.2 °F - 59.0 °F 78% 30.01 in - SSW 10.4 mph - N/A   Clear
1:30 AM 64.4 °F - 59.0 °F 83% 29.98 in - SSW 10.4 mph - N/A   Clear
2:00 AM 65 °F - 58 °F 73% 29.99 in - SSW 12.7 mph - -  
2:00 AM 64.4 °F - 59.0 °F 83% 29.98 in - SSW 12.7 mph - N/A   Clear
2:30 AM 64.4 °F - 59.0 °F 83% 29.98 in - South 12.7 mph - N/A   Clear
3:00 AM 63 °F - 58 °F 78% 29.99 in 19 mi South 13.8 mph - -   Partly Cloudy
3:00 AM 62.6 °F - 57.2 °F 82% 29.98 in - South 13.8 mph - N/A   Clear
3:30 AM 62.6 °F - 57.2 °F 82% 29.98 in - South 11.5 mph - N/A   Clear
4:00 AM 60.8 °F - 57.2 °F 88% 29.98 in - South 9.2 mph - N/A   Clear
4:30 AM 60.8 °F - 57.2 °F 88% 29.98 in - South 8.1 mph - N/A   Clear
5:00 AM 60 °F - 57 °F 86% 30.00 in - South 8.1 mph - -  
5:00 AM 60.8 °F - 57.2 °F 88% 30.01 in - South 8.1 mph - N/A   Clear
5:30 AM 60.8 °F - 57.2 °F 88% 30.01 in - South 8.1 mph - N/A   Clear
6:00 AM 61 °F - 57 °F 82% 30.02 in 19 mi South 9.2 mph - -   Partly Cloudy
6:00 AM 60.8 °F - 57.2 °F 88% 30.01 in - South 9.2 mph - N/A   Clear
6:30 AM 64.4 °F - 57.2 °F 77% 30.01 in - SSW 9.2 mph - N/A   Clear
7:00 AM 66.2 °F - 55.4 °F 68% 30.04 in - SSW 10.4 mph - N/A   Clear
7:30 AM 68.0 °F - 55.4 °F 64% 30.04 in - South 9.2 mph - N/A   Clear
8:00 AM 70 °F - 56 °F 51% 30.04 in - South 8.1 mph - -  
8:00 AM 69.8 °F - 55.4 °F 60% 30.04 in - South 8.1 mph - N/A   Unknown
8:30 AM 71.6 °F - 55.4 °F 57% 30.04 in - SSW 5.8 mph - N/A   Clear
9:00 AM 75 °F - 56 °F 42% 30.02 in 19 mi South 4.6 mph - -   Partly Cloudy
9:00 AM 75.2 °F - 57.2 °F 53% 30.01 in - South 4.6 mph - N/A   Clear
9:30 AM 77.0 °F - 55.4 °F 47% 30.01 in 6.2 mi SSW 5.8 mph - N/A   Unknown
10:00 AM 78.8 °F - 55.4 °F 44% 30.01 in - SW 5.8 mph - N/A   Clear
10:30 AM 80.6 °F 80.5 °F 55.4 °F 42% 30.01 in - SSW 8.1 mph - N/A   Clear
11:00 AM 83 °F - 55 °F 28% 30.00 in - South 9.2 mph - -  
11:00 AM 84.2 °F 83.0 °F 55.4 °F 37% 29.98 in - South 9.2 mph - N/A   Clear
11:30 AM 86.0 °F 84.5 °F 55.4 °F 35% 29.98 in - WSW 10.4 mph - N/A   Clear
12:00 PM 85 °F - 56 °F 26% 29.98 in 19 mi West 12.7 mph - -   Partly Cloudy
12:00 PM 84.2 °F 83.0 °F 55.4 °F 37% 29.98 in - West 12.7 mph - N/A   Clear
12:30 PM 86.0 °F 84.9 °F 57.2 °F 37% 29.95 in - West 10.4 mph - N/A   Clear
1:00 PM 84.2 °F 83.8 °F 59.0 °F 42% 29.95 in - West 16.1 mph - N/A   Clear
1:30 PM 82.4 °F 82.9 °F 60.8 °F 48% 29.95 in - West 17.3 mph - N/A   Clear
2:00 PM 85 °F - 59 °F 31% 29.96 in - SW 16.1 mph - -  
2:00 PM 84.2 °F 83.8 °F 59.0 °F 42% 29.95 in - SW 16.1 mph - N/A   Clear
2:30 PM 84.2 °F 83.8 °F 59.0 °F 42% 29.95 in - SW 17.3 mph - N/A   Clear
3:00 PM 83 °F - 58 °F 33% 29.95 in 19 mi SW 18.4 mph - -   Partly Cloudy
3:00 PM 82.4 °F 82.5 °F 59.0 °F 45% 29.95 in - SW 18.4 mph - N/A   Clear
3:30 PM 82.4 °F 82.5 °F 59.0 °F 45% 29.95 in - WSW 17.3 mph - N/A   Clear
4:00 PM 84.2 °F 83.8 °F 59.0 °F 42% 29.92 in - WSW 17.3 mph - N/A   Clear
4:30 PM 82.4 °F 82.5 °F 59.0 °F 45% 29.92 in - WSW 18.4 mph - N/A   Clear
5:00 PM 82 °F - 58 °F 34% 29.93 in - WSW 18.4 mph - -  
5:00 PM 82.4 °F 82.5 °F 59.0 °F 45% 29.92 in - WSW 18.4 mph - N/A   Clear
5:30 PM 80.6 °F 81.1 °F 59.0 °F 48% 29.95 in - SW 20.7 mph - N/A   Clear
6:00 PM 79 °F - 58 °F 37% 29.96 in 19 mi SW 20.7 mph - -   Partly Cloudy
6:00 PM 78.8 °F - 57.2 °F 47% 29.95 in - SW 20.7 mph - N/A   Clear
6:30 PM 77.0 °F - 57.2 °F 50% 29.98 in - SW 19.6 mph - N/A   Clear
7:00 PM 75.2 °F - 57.2 °F 53% 29.98 in - SSW 18.4 mph - N/A   Clear
7:30 PM 73.4 °F - 59.0 °F 61% 29.98 in - SSW 16.1 mph - N/A   Clear
8:00 PM 73 °F - 59 °F 53% 30.00 in - SSW 12.7 mph - -  
8:00 PM 73.4 °F - 59.0 °F 61% 30.01 in - SSW 12.7 mph - N/A   Clear
8:30 PM 71.6 °F - 59.0 °F 64% 30.01 in - SW 10.4 mph - N/A   Clear
9:00 PM 71 °F - 60 °F 60% 30.02 in 19 mi SSW 10.4 mph - -   Partly Cloudy
9:00 PM 71.6 °F - 60.8 °F 69% 30.01 in - SSW 10.4 mph - N/A   Clear
9:30 PM 71.6 °F - 59.0 °F 64% 30.01 in - SSW 10.4 mph - N/A   Clear
10:00 PM 69.8 °F - 59.0 °F 68% 30.01 in - SSW 11.5 mph - N/A   Clear
10:30 PM 69.8 °F - 59.0 °F 68% 30.01 in - SSW 10.4 mph - N/A   Clear
11:00 PM 69 °F - 60 °F 65% 30.01 in - SSW 10.4 mph - -  
11:00 PM 69.8 °F - 59.0 °F 68% 30.01 in - SSW 10.4 mph - N/A   Clear
11:30 PM 69.8 °F - 59.0 °F 68% 30.01 in - South 9.2 mph - N/A   Clear